Location: Zapote
(9.9191°N, 84.0597°W)
Time: 03:54:55
(UTC-06:00)

Hubble Space Telescope - Pass Details

Date: 26 January 2021
Orbit: 536 x 539 km, 28.5° (Epoch: 28 February)

Event Time Altitude Azimuth Distance (km) Brightness Sun altitude
Rises 19:00:49 0° 315° (NW) 2,669 4.7 -20.0°
Reaches altitude 10° 19:03:28 10° 331° (NNW) 1,780 3.6 -20.7°
Enters shadow 19:05:21 19° 355° (N) 1,318 2.6 -21.1°
